Regional Weather Roundup
Issued by NWS

Home | Current Version | Previous Version | Text Only | Print | Product List | Glossary Off
Versions: 1 2 3 4 5 6 7 8 9 10 11 12 13 14 15 16 17 18 19 20 21 22 23 24 25 26 27 28 29 30 31 32 33 34 35 36 37 38 39 40 41 42 43 44 45 46 47 48 49 50

000
ASUS43 KIND 201159
RWRIN

WEATHER ROUNDUP FOR INDIANA
NATIONAL WEATHER SERVICE INDIANAPOLIS IN
800 AM EDT SAT SEP 20 2014

NOTE: "FAIR" INDICATES FEW OR NO CLOUDS BELOW 12,000 FEET WITH NO
SIGNIFICANT WEATHER AND/OR OBSTRUCTIONS TO VISIBILITY.

* - STATION DOES NOT REPORT WEATHER SUCH AS PRECIPITATION OR FOG.

+ - STATION NOT QUALITY CONTROLLED BY THE NATIONAL WEATHER SERVICE.
    USE DATA WITH CAUTION...ESPECIALLY DEWPOINT AND RELATIVE
    HUMIDITY OBSERVATIONS.

INZ001>003-010>013-019-020-201300-
NORTHWEST INDIANA

CITY           SKY/WX    TMP DP  RH WIND       PRES   REMARKS
GARY /AIRPORT/ MOCLDY    63  54  72 MISG      29.96R
VALPARAISO     PTCLDY    57  52  83 SW8       30.00R
6HR MIN TEMP:  55; 6HR MAX TEMP:  59;


$$

LMZ046-743>745-201300-
SOUTHERN LAKE MICHIGAN

STATION/POSITION TIME  TEMP WIND        PRES
                       AIR  DIR/SP/G
                 (UTC) (F)  (DEG/KT/KT) (MB)
MICHIGAN CITY    1100   62  160/ 16/ 22   N/A

$$

INZ004-005-014>016-021>024-201300-
NORTH CENTRAL INDIANA

CITY           SKY/WX    TMP DP  RH WIND       PRES   REMARKS
GOSHEN         PTCLDY    59  52  77 S9        29.98F
6HR MIN TEMP:  55; 6HR MAX TEMP:  59;

SOUTH BEND     PTCLDY    59  52  77 SW8       29.98F
6HR MIN TEMP:  57; 6HR MAX TEMP:  60;


$$

INZ006>009-017-018-025>027-201300-
NORTHEAST INDIANA

CITY           SKY/WX    TMP DP  RH WIND       PRES   REMARKS
ANGOLA *+      CLEAR     57  52  82 S7        30.00S
FORT WAYNE     MOCLDY    54  51  90 SW8       30.03S
6HR MIN TEMP:  50; 6HR MAX TEMP:  54;


$$

INZ028-029-035-036-043>045-051>053-201300-
WEST CENTRAL INDIANA

CITY           SKY/WX    TMP DP  RH WIND       PRES   REMARKS
GREENCASTLE +  PTCLDY    52  50  93 CALM      30.06R FOG
LAFAYETTE      PTCLDY    56  53  90 SW3       30.02S
6HR MIN TEMP:  51; 6HR MAX TEMP:  57;

TERRE HAUTE    PTCLDY    52  50  93 CALM      30.05R FOG
6HR MIN TEMP:  50; 6HR MAX TEMP:  54;


$$

INZ030>032-037>040-046>048-054>057-064-065-201300-
CENTRAL INDIANA

CITY           SKY/WX    TMP DP  RH WIND       PRES   REMARKS
INDIANAPOLIS   MOCLDY    54  51  90 SE3       30.05R
6HR MIN TEMP:  54; 6HR MAX TEMP:  59;

-EAGLE CREEK   PTCLDY    54  51  90 CALM      30.06R FOG
6HR MIN TEMP:  53; 6HR MAX TEMP:  57;

KOKOMO *+      MOCLDY    54  50  87 S6        30.04S
MT COMFORT *+  MOCLDY    54  54 100 S3        30.07R
SHELBYVILLE    PTCLDY    57  54  89 S5        30.06R FOG
6HR MIN TEMP:  54; 6HR MAX TEMP:  59;


$$

INZ033-034-041-042-049-050-058-059-201300-
EAST CENTRAL INDIANA

CITY           SKY/WX    TMP DP  RH WIND       PRES   REMARKS
MUNCIE         MOCLDY    59  54  83 S6        30.06R
6HR MIN TEMP:  57; 6HR MAX TEMP:  60;


$$

INZ060-061-067>069-081>083-085>088-201300-
SOUTHWEST INDIANA

CITY           SKY/WX    TMP DP  RH WIND       PRES   REMARKS
EVANSVILLE     MOCLDY    59  57  93 CALM      30.07R FOG
6HR MIN TEMP:  57; 6HR MAX TEMP:  61;


$$

INZ062-063-066-070>080-084-089>092-201300-
SOUTH CENTRAL AND SOUTHEAST INDIANA

CITY           SKY/WX    TMP DP  RH WIND       PRES   REMARKS
BLOOMINGTON    CLEAR     51  50  96 CALM      30.07R FOG
6HR MIN TEMP:  51; 6HR MAX TEMP:  59;


$$



USA.gov is the U.S. government's official web portal to all federal, state and local government web resources and services.